Weather History for Port Angeles, WA

Change the Weather History Date:

Saturday, December 7, 2013

  Actual Average Record
Temperature  
Mean Temperature 23 °F -  
Max Temperature 28 °F 45 °F 54 °F (2010)
Min Temperature 18 °F 35 °F 18 °F (2013)
Degree Days  
Heating Degree Days 42    
Moisture  
Dew Point 8 °F    
Average Humidity 52    
Maximum Humidity 68    
Minimum Humidity 32    
Precipitation  
Precipitation 0.00 in - - ()
Sea Level Pressure  
Sea Level Pressure 30.39 in    
Wind  
Wind Speed 6 mph (SW)    
Max Wind Speed 14 mph    
Max Gust Speed 18 mph    
Visibility 10 miles    
Events      
Averages and records for this station are not official NWS values.
T = Trace of Precipitation, MM = Missing Value Source: NWS Daily Summary

Daily Weather History Graph

Daily Weather History Graph

Search for Another Location

Airport:

Trip Planner

Search our weather history database for the weather conditions in past years. The results will help you decide how hot, cold, wet, or windy it might be!

Date:

Astronomy

Dec. 07, 2013 Rise Set
Actual Time 7:50 AM PST 4:20 PM PST
Civil Twilight 7:14 AM PST 4:56 PM PST
Nautical Twilight 6:35 AM PST 5:36 PM PST
Astronomical Twilight 5:57 AM PST 6:13 PM PST
Moon 11:22 AM PST (12/7) 10:27 PM PST (12/7)
Length of Visible Light 9h 42m
Length of Day
8h 29m
Waxing Crescent, 30% of the Moon is Illuminated
Dec 7
Waxing Crescent
Dec 9
First Quarter
Dec 17
Full
Dec 25
Last Quarter
Jan 1
New

Hourly Weather History & Observations

Time (PST) Temp. Windchill Dew Point Humidity Pressure Visibility Wind Dir Wind Speed Gust Speed Precip Events Conditions
12:53 AM 26.1 °F - 10.0 °F 51% 30.30 in 10.0 mi North - - N/A   Overcast
1:53 AM 25.0 °F 17.1 °F 10.0 °F 53% 30.32 in 10.0 mi Variable 6.9 mph 18.4 mph N/A   Overcast
2:53 AM 25.0 °F - 9.0 °F 51% 30.33 in 10.0 mi North - - N/A   Overcast
3:53 AM 25.0 °F - 8.1 °F 49% 30.34 in 10.0 mi North - - N/A   Overcast
4:53 AM 24.1 °F - 7.0 °F 48% 30.35 in 10.0 mi North - - N/A   Partly Cloudy
5:53 AM 23.0 °F 18.4 °F 8.1 °F 53% 30.35 in 10.0 mi East 3.5 mph - N/A   Mostly Cloudy
6:53 AM 24.1 °F - 7.0 °F 48% 30.35 in 10.0 mi Calm Calm - N/A   Partly Cloudy
7:53 AM 18.0 °F 7.7 °F 9.0 °F 68% 30.37 in 10.0 mi WSW 8.1 mph - N/A   Mostly Cloudy
8:53 AM 21.9 °F 11.0 °F 10.0 °F 60% 30.39 in 10.0 mi WSW 10.4 mph - N/A   Clear
9:53 AM 24.1 °F 12.0 °F 10.0 °F 55% 30.40 in 10.0 mi WSW 13.8 mph - N/A   Clear
10:53 AM 26.1 °F - 8.1 °F 47% 30.41 in 10.0 mi North - - N/A   Clear
11:53 AM 28.0 °F - 3.9 °F 36% 30.40 in 10.0 mi North - - N/A   Clear
12:53 PM 28.9 °F - 3.0 °F 33% 30.40 in 10.0 mi North - - N/A   Clear
1:53 PM 28.9 °F - 1.9 °F 32% 30.40 in 10.0 mi North - - N/A   Clear
2:53 PM 28.9 °F - 3.9 °F 35% 30.41 in 10.0 mi North - - N/A   Clear
3:53 PM 27.0 °F - 3.9 °F 37% 30.42 in 10.0 mi North - - N/A   Clear
4:53 PM 21.9 °F - 8.1 °F 55% 30.43 in 10.0 mi North - - N/A   Clear
5:53 PM 21.0 °F - 7.0 °F 55% 30.42 in 10.0 mi North - - N/A   Clear
6:53 PM 19.0 °F - 7.0 °F 59% 30.42 in 10.0 mi North - - N/A   Clear
7:53 PM 19.9 °F - 8.1 °F 60% 30.41 in 10.0 mi North - - N/A   Clear
8:53 PM 21.0 °F - 10.0 °F 63% 30.41 in 10.0 mi North - - N/A   Clear
9:53 PM 21.0 °F - 10.0 °F 63% 30.40 in 10.0 mi North - - N/A   Clear
10:53 PM 19.9 °F - 10.0 °F 65% 30.42 in 10.0 mi North - - N/A   Clear
11:53 PM 19.9 °F - 10.0 °F 65% 30.42 in 10.0 mi North - - N/A   Clear